Temp
17 17 18 17 16 16 15 15 15 15 15 15 15 15 15 16 16 16 16 16 16 16 16 15 15 15 15 15 15 15 15 15 15 15 15 15 15 15 15 15 15 14
17 17 17 17 16 15 15 15 15 15 15 15 15 15 16 16 16 16 16 16 16 16 16 15 15 15 15 15 15 15 15 15 15 14 14 15 15 14 14 15 15 14
17 17 16 16 15 15 15 15 15 15 15 15 15 15 16 16 16 16 16 16 16 15 15 15 15 15 15 15 15 15 15 14 14 14 14 15 14 14 14 15 15 14
16 16 16 16 15 15 15 15 15 15 15 15 15 15 16 16 16 16 16 16 16 16 15 15 15 15 15 15 15 15 15 14 14 14 14 14 14 14 14 14 14 14
16 16 16 16 16 15 15 15 15 15 15 15 15 15 15 16 16 16 16 16 16 15 15 14 14 15 15 15 15 15 15 14 14 14 14 14 14 14 14 14 14 14
17 17 17 16 16 15 15 15 15 15 15 14 15 15 15 15 15 16 16 16 16 15 15 15 15 15 15 15 15 14 14 14 14 14 14 14 14 14 14 14 14 14
16 16 16 16 15 15 15 15 14 15 14 14 15 15 15 14 14 15 15 16 16 15 15 15 15 15 15 15 15 14 14 14 14 14 14 14 14 14 14 14 14 14
16 16 16 15 15 15 15 15 15 15 15 15 15 14 14 14 14 14 15 15 16 15 15 16 15 15 15 15 15 14 14 14 14 14 14 14 14 14 14 14 14 14
16 16 16 15 15 15 15 15 16 16 16 16 15 15 14 14 14 15 15 15 15 15 15 15 15 15 15 15 15 14 14 14 14 14 14 14 14 14 14 14 14 14
16 16 16 15 15 16 16 16 16 17 17 16 15 15 15 15 14 14 14 15 15 15 15 15 15 15 15 15 14 14 14 14 14 14 14 14 14 14 14 14 14 13
16 16 16 16 16 16 16 16 16 16 16 16 16 16 16 15 15 15 14 14 14 14 15 15 15 15 15 14 14 14 14 14 14 14 14 15 14 14 14 13 13 13
16 16 16 16 16 16 16 16 16 16 16 16 16 16 16 16 16 15 15 14 14 14 14 15 14 14 14 14 14 14 14 14 14 14 14 14 14 14 13 12 12 13
16 16 16 16 16 15 15 15 15 15 15 15 15 15 15 15 15 15 15 14 14 14 14 14 14 14 14 13 13 14 14 13 13 13 13 14 14 14 13 13 13 13
16 16 16 16 15 15 15 15 15 14 14 14 14 15 15 15 15 15 15 14 14 14 14 14 14 14 14 13 13 13 13 13 13 14 13 14 14 14 13 13 13 13
17 16 16 15 15 15 14 14 14 14 14 14 14 15 15 15 15 14 14 14 14 14 14 14 14 14 14 14 14 13 13 13 14 14 13 13 14 14 14 13 13 13
17 17 16 16 15 15 14 14 14 14 14 14 14 14 14 14 14 14 14 14 14 14 14 14 14 14 14 14 14 14 14 14 14 14 13 13 14 14 14 13 12 13
17 17 16 16 15 15 14 14 14 14 14 14 14 14 14 14 14 14 14 14 14 14 14 14 14 14 14 13 14 14 14 14 13 13 13 13 13 13 13 13 13 13
17 16 16 15 15 15 15 14 14 14 14 14 14 14 14 14 14 14 14 14 14 14 14 14 14 14 14 14 14 14 14 14 13 13 13 13 13 13 13 13 13 13
17 16 16 15 15 15 15 15 14 14 14 14 14 14 14 14 14 14 14 14 14 14 14 14 14 14 14 14 14 14 13 14 13 13 13 13 13 13 13 13 13 13
17 16 16 15 15 15 15 15 14 14 14 14 14 15 14 14 14 14 14 14 14 14 14 14 14 14 14 14 14 14 14 14 13 13 13 13 13 13 13 13 13 13
17 16 16 15 15 15 15 15 14 14 14 14 14 15 15 14 14 14 14 14 14 14 14 14 14 14 14 14 14 14 14 14 13 13 13 13 13 12 12 13 13 13
16 16 16 15 15 15 15 15 15 15 14 14 14 14 14 14 14 15 15 15 15 14 14 14 14 14 14 14 13 13 14 14 13 13 13 12 12 12 12 13 13 13
16 16 16 15 15 15 15 15 15 15 15 15 15 15 15 15 15 15 15 15 15 15 14 14 14 14 14 14 14 13 13 13 13 13 13 12 12 12 12 12 13 13
16 16 16 16 15 15 15 15 15 15 15 15 15 15 15 15 15 15 15 15 15 14 14 14 14 14 14 13 14 14 13 13 13 13 13 12 12 12 12 12 13 13
16 16 16 16 16 15 15 15 15 15 15 15 15 15 15 15 15 15 15 15 14 14 14 14 14 14 13 13 14 14 13 13 13 13 13 12 12 12 13 13 13 13
16 16 16 16 16 16 16 15 15 15 15 15 15 15 15 15 15 15 15 14 14 14 14 14 14 13 13 13 13 13 13 13 13 13 13 12 13 13 13 13 13 13
Height
1552 1552 1551 1551 1550 1550 1549 1549 1548 1547 1546 1545 1544 1543 1542 1541 1541 1540 1539 1537 1536 1536 1535 1534 1533 1532 1531 1529 1528 1527 1526 1525 1524 1523 1522 1521 1520 1519 1518 1518 1517 1516
1551 1551 1550 1549 1549 1549 1548 1548 1547 1546 1545 1544 1543 1542 1541 1540 1539 1539 1538 1536 1535 1534 1533 1533 1531 1530 1529 1528 1527 1526 1525 1524 1523 1522 1521 1520 1519 1518 1516 1516 1515 1514
1550 1549 1549 1549 1548 1548 1547 1547 1546 1545 1544 1543 1542 1541 1540 1539 1538 1537 1536 1535 1534 1533 1532 1531 1530 1529 1528 1527 1526 1525 1524 1522 1521 1520 1519 1518 1517 1516 1515 1514 1513 1512
1548 1548 1547 1547 1547 1547 1546 1545 1545 1544 1544 1543 1541 1540 1539 1538 1537 1536 1535 1534 1533 1532 1531 1530 1529 1528 1527 1526 1525 1524 1522 1521 1520 1519 1518 1517 1516 1515 1514 1512 1511 1510
1547 1546 1546 1546 1545 1545 1544 1544 1544 1543 1543 1542 1541 1540 1539 1537 1536 1535 1534 1533 1532 1531 1530 1529 1528 1527 1526 1525 1524 1523 1521 1520 1519 1518 1517 1516 1515 1514 1513 1511 1510 1509
1545 1545 1544 1544 1544 1543 1543 1543 1543 1542 1542 1541 1540 1539 1538 1536 1535 1534 1533 1532 1531 1530 1529 1528 1527 1526 1525 1524 1522 1521 1520 1519 1518 1516 1515 1514 1513 1512 1511 1510 1509 1507
1544 1543 1543 1543 1542 1542 1542 1542 1542 1541 1540 1539 1538 1537 1536 1536 1535 1533 1532 1531 1530 1529 1528 1527 1526 1525 1524 1522 1521 1520 1519 1518 1516 1515 1514 1513 1512 1511 1510 1509 1507 1505
1542 1542 1542 1542 1541 1541 1541 1541 1541 1540 1540 1539 1537 1536 1535 1534 1533 1532 1531 1530 1529 1528 1527 1526 1524 1523 1522 1521 1520 1519 1517 1516 1515 1514 1513 1511 1510 1509 1508 1507 1505 1503
1541 1541 1540 1540 1540 1540 1540 1540 1540 1540 1539 1538 1537 1536 1534 1533 1532 1530 1529 1528 1527 1526 1525 1524 1523 1522 1521 1520 1519 1517 1516 1515 1514 1512 1511 1510 1509 1508 1506 1505 1503 1501
1539 1539 1539 1539 1539 1540 1539 1539 1539 1539 1538 1537 1536 1535 1533 1532 1530 1529 1528 1527 1526 1525 1523 1522 1522 1520 1519 1518 1517 1516 1515 1513 1512 1511 1510 1508 1507 1506 1504 1503 1501 1499
1538 1538 1538 1538 1538 1538 1538 1538 1538 1537 1536 1535 1534 1533 1532 1531 1530 1528 1527 1525 1524 1523 1522 1521 1520 1519 1518 1517 1516 1515 1513 1512 1511 1509 1508 1506 1505 1504 1502 1501 1500 1498
1537 1537 1537 1537 1537 1537 1536 1536 1535 1535 1534 1534 1533 1532 1531 1530 1529 1528 1526 1524 1522 1521 1520 1519 1518 1516 1516 1515 1514 1513 1512 1510 1509 1507 1506 1504 1503 1502 1501 1499 1498 1496
1536 1535 1535 1535 1535 1535 1535 1534 1533 1533 1532 1531 1530 1530 1529 1528 1527 1526 1524 1523 1521 1520 1518 1517 1516 1515 1514 1513 1512 1511 1510 1509 1507 1505 1504 1502 1501 1499 1498 1498 1496 1494
1534 1534 1534 1534 1533 1533 1533 1532 1531 1531 1529 1529 1528 1528 1527 1526 1525 1524 1523 1521 1520 1518 1517 1515 1514 1513 1513 1512 1511 1509 1508 1507 1505 1503 1501 1500 1499 1497 1496 1495 1493 1491
1532 1532 1532 1532 1531 1531 1531 1530 1529 1529 1528 1527 1527 1526 1525 1524 1523 1522 1520 1519 1518 1516 1515 1514 1512 1512 1511 1510 1509 1508 1506 1504 1502 1501 1499 1498 1496 1495 1493 1492 1491 1489
1529 1530 1530 1530 1530 1529 1529 1528 1528 1527 1526 1526 1525 1524 1523 1521 1520 1519 1518 1517 1516 1515 1513 1512 1511 1510 1508 1508 1507 1506 1504 1502 1500 1498 1497 1495 1494 1492 1491 1490 1488 1486
1528 1528 1528 1528 1528 1527 1527 1527 1526 1525 1524 1524 1523 1522 1521 1519 1518 1517 1516 1515 1514 1513 1512 1510 1509 1507 1506 1505 1504 1503 1501 1499 1497 1496 1494 1493 1492 1490 1488 1487 1485 1483
1526 1526 1526 1526 1526 1526 1525 1525 1524 1523 1523 1522 1521 1520 1519 1518 1517 1515 1514 1513 1512 1511 1510 1508 1507 1505 1503 1503 1502 1500 1499 1497 1495 1494 1492 1491 1490 1488 1486 1484 1482 1480
1524 1523 1524 1524 1524 1524 1523 1523 1522 1521 1521 1521 1519 1518 1517 1516 1515 1514 1512 1511 1510 1509 1507 1506 1505 1503 1502 1501 1500 1498 1497 1495 1493 1492 1490 1489 1487 1486 1484 1481 1479 1478
1521 1521 1522 1522 1521 1521 1521 1520 1520 1519 1519 1519 1518 1517 1516 1514 1513 1512 1511 1510 1508 1507 1505 1504 1503 1502 1500 1499 1498 1496 1495 1493 1491 1490 1488 1487 1485 1484 1482 1479 1477 1475
1518 1518 1519 1519 1519 1519 1519 1518 1518 1517 1517 1517 1516 1515 1514 1513 1511 1510 1509 1508 1506 1505 1504 1502 1501 1500 1498 1497 1496 1495 1493 1491 1489 1487 1486 1484 1483 1481 1479 1477 1475 1473
1516 1516 1517 1517 1517 1517 1517 1516 1516 1515 1515 1515 1514 1513 1512 1511 1510 1509 1507 1506 1505 1503 1502 1501 1500 1498 1497 1496 1494 1493 1491 1489 1487 1486 1484 1482 1480 1478 1476 1474 1473 1471
1513 1514 1514 1515 1515 1515 1515 1514 1514 1513 1513 1513 1512 1511 1510 1509 1508 1507 1505 1504 1503 1502 1501 1499 1498 1497 1496 1494 1493 1491 1490 1488 1486 1485 1483 1481 1478 1476 1475 1473 1471 1469
1511 1512 1512 1512 1513 1513 1512 1512 1512 1511 1511 1511 1510 1509 1508 1507 1506 1504 1503 1502 1501 1500 1499 1497 1496 1495 1495 1493 1491 1490 1488 1486 1485 1483 1481 1479 1477 1475 1474 1471 1469 1468
1509 1509 1509 1510 1510 1510 1510 1510 1509 1509 1509 1508 1507 1506 1505 1505 1504 1502 1501 1500 1499 1498 1497 1496 1494 1493 1493 1492 1490 1488 1486 1485 1484 1482 1480 1478 1476 1474 1472 1470 1468 1466
1506 1506 1506 1507 1507 1507 1507 1507 1506 1506 1506 1505 1504 1504 1503 1503 1501 1500 1499 1498 1497 1495 1494 1494 1492 1490 1490 1489 1488 1486 1484 1483 1482 1480 1479 1477 1475 1473 1470 1468 1466 1464
Wind_Speed
11 12 12 11 10 9 9 9 10 11 12 13 12 11 12 12 13 13 13 13 13 12 12 12 13 13 13 13 14 15 16 17 18 18 19 20 21 21 21 21 22 23
11 11 11 10 9 8 8 9 10 11 12 12 12 12 12 12 12 12 13 13 13 13 12 11 12 13 13 14 14 15 16 17 18 17 17 18 19 21 22 22 23 23
11 10 9 9 8 8 9 9 9 10 10 11 12 12 12 12 12 13 13 13 13 12 12 12 12 13 15 16 16 16 16 17 17 17 16 17 19 20 20 21 21 22
10 10 9 9 8 9 9 9 9 9 10 11 11 11 12 12 13 13 14 13 13 12 12 12 12 13 15 16 17 18 17 17 16 17 18 18 19 19 18 19 22 22
10 10 10 10 10 9 9 8 9 9 10 10 11 11 11 12 13 14 14 14 13 12 12 13 13 13 14 15 16 16 16 16 16 17 19 19 19 18 17 19 21 22
11 10 10 10 10 9 9 8 9 10 10 11 11 11 12 13 13 14 14 14 14 13 13 14 14 14 14 15 15 15 16 17 17 18 20 20 20 19 18 19 20 22
10 9 9 10 9 9 9 9 10 11 11 12 13 13 13 13 14 14 14 14 14 14 14 15 15 14 15 15 15 15 17 16 16 18 20 21 21 20 19 20 21 23
9 9 9 10 9 9 9 10 10 11 12 13 14 14 13 13 15 16 15 14 14 14 14 14 14 14 14 15 15 17 18 16 16 18 19 21 20 19 18 20 22 23
9 9 9 9 9 9 9 9 10 12 12 13 14 14 14 15 16 17 16 15 14 14 14 14 14 15 15 15 16 17 19 18 18 19 20 21 20 17 17 20 23 23
9 9 9 9 9 9 9 10 11 12 12 12 13 14 15 15 16 17 17 16 15 14 15 15 14 15 16 16 17 17 19 20 21 20 20 22 19 16 17 21 22 22
9 9 9 9 9 9 10 10 11 12 12 13 14 14 15 15 15 15 16 17 16 16 17 16 16 16 16 17 17 17 19 21 21 21 21 22 19 16 18 21 21 21
9 9 9 9 9 10 10 11 11 12 13 13 14 14 15 15 15 15 17 18 17 17 18 18 16 16 16 17 18 18 19 21 22 22 21 21 20 17 17 19 20 22
9 9 9 9 10 10 11 11 11 12 13 14 14 14 15 16 16 16 17 18 17 17 18 17 16 15 15 16 17 18 18 19 22 22 21 20 20 19 17 17 20 23
9 9 10 10 10 11 11 12 12 13 14 14 14 14 15 16 16 17 17 17 16 16 17 16 15 14 14 15 16 17 17 19 21 23 21 20 21 20 17 17 20 22
10 10 10 10 10 11 12 12 13 14 14 13 14 15 16 16 17 17 17 17 17 16 16 16 14 13 14 16 16 17 19 20 22 23 21 20 21 20 18 17 20 22
11 11 10 10 10 11 12 12 13 14 13 13 14 16 16 17 17 17 16 16 16 16 15 14 14 15 17 18 17 17 19 21 22 21 20 20 21 20 19 18 20 23
11 11 11 10 10 11 12 12 14 14 13 14 15 16 16 16 16 16 15 15 16 15 15 14 15 17 19 18 17 18 19 20 20 19 20 20 20 20 20 20 21 24
11 11 11 11 11 11 12 13 14 13 13 14 14 15 15 15 15 15 15 15 15 15 15 15 15 17 19 19 18 19 20 20 19 19 20 21 20 20 21 21 23 25
12 12 12 12 12 12 13 13 14 13 12 13 14 14 15 15 15 15 15 15 15 15 15 15 15 17 19 20 20 20 21 20 19 20 21 22 21 21 21 22 24 26
13 13 12 12 12 12 13 13 14 13 12 12 13 13 14 14 14 14 14 14 14 15 15 15 15 16 18 20 20 20 21 20 20 20 21 23 23 22 21 22 25 26
14 13 13 13 13 13 13 14 14 12 12 12 13 13 13 14 14 14 14 14 14 14 14 15 15 16 18 20 21 20 20 20 20 20 22 23 23 22 21 22 24 26
15 14 13 13 13 13 13 14 13 12 12 12 13 13 13 14 14 14 13 14 14 14 15 15 15 16 18 19 20 19 19 20 20 20 22 23 23 22 22 24 25 25
15 14 13 13 13 14 14 14 13 13 12 12 12 13 13 13 14 14 13 14 14 14 16 16 15 16 18 19 19 18 19 19 19 20 22 23 22 22 23 24 24 24
16 15 14 13 14 15 14 14 14 13 12 12 12 12 13 13 13 13 13 13 14 15 17 17 16 16 17 18 18 18 18 19 19 19 21 22 22 22 24 24 24 23
16 15 15 14 14 15 14 14 14 14 13 13 13 12 13 13 12 13 13 14 15 16 18 18 17 15 15 16 17 17 17 18 19 20 21 22 22 24 25 24 22 21
17 17 16 15 15 15 15 15 15 14 14 14 13 13 13 13 12 13 14 15 16 16 17 18 17 14 13 16 17 17 16 17 19 19 20 21 22 25 26 24 23 21
Wind_Direction
300 302 301 299 294 293 295 299 301 302 307 309 308 304 304 310 317 320 321 319 315 314 314 315 317 321 323 320 317 318 317 316 315 314 313 311 310 309 306 301 299 296
295 298 299 300 298 296 295 295 296 300 305 308 305 304 308 315 321 322 322 319 314 314 315 314 314 316 318 316 315 315 314 313 314 313 311 312 313 311 307 305 304 303
291 294 293 292 288 284 283 286 292 298 303 305 306 308 311 316 323 323 322 321 317 313 313 311 310 313 318 320 321 321 317 317 318 315 312 317 322 318 314 313 311 309
281 289 288 285 280 277 280 285 292 296 300 302 304 308 311 315 321 321 321 322 319 314 312 312 311 315 321 323 323 323 322 322 321 320 319 323 326 325 322 320 319 319
277 284 287 285 282 281 282 284 287 290 295 299 302 305 307 310 314 316 319 319 318 313 309 308 309 313 320 322 322 325 326 324 320 319 322 326 327 325 324 323 322 323
283 287 289 290 288 288 287 283 283 287 291 294 298 300 302 306 309 311 313 313 313 311 307 306 307 310 316 320 324 329 329 325 322 321 322 323 324 324 324 325 325 325
280 280 282 286 286 286 285 282 284 291 294 295 300 304 306 306 306 306 307 308 308 308 308 308 308 310 314 316 320 325 326 324 320 319 320 322 323 323 324 327 328 329
268 268 271 278 280 280 281 283 289 295 295 295 298 303 304 302 302 303 304 302 302 304 306 308 309 310 310 313 315 318 321 321 317 316 319 322 322 320 324 330 331 330
263 266 269 272 277 281 280 279 287 293 291 290 293 297 299 300 304 307 305 298 295 297 300 304 309 309 308 311 314 314 315 316 317 318 320 323 322 318 324 332 334 332
262 265 267 269 270 274 275 277 286 290 289 288 291 294 297 300 305 309 308 301 294 293 297 301 305 306 307 310 312 310 308 311 314 316 318 322 322 320 326 333 335 332
259 260 262 264 266 269 273 277 282 285 289 291 293 296 297 299 301 302 302 301 295 292 294 296 300 303 307 311 311 306 304 307 309 310 315 320 319 317 324 330 330 328
254 257 257 260 266 270 272 275 280 286 291 293 293 294 294 296 297 296 296 300 298 294 293 292 293 300 306 307 306 306 306 305 305 307 311 314 314 314 320 323 322 325
250 255 257 260 264 266 269 274 280 285 287 288 291 293 293 294 295 295 295 299 299 297 297 294 292 297 300 297 298 303 303 298 299 304 307 309 311 312 313 316 320 325
249 251 255 261 264 265 268 274 280 283 287 291 292 293 294 294 294 294 293 294 296 295 295 295 294 294 290 289 294 298 294 290 296 303 302 304 310 311 307 311 319 324
256 258 259 262 264 265 269 276 282 286 290 293 292 292 295 295 292 291 290 292 295 295 294 294 293 286 282 286 294 298 296 296 300 303 300 301 309 310 306 308 315 320
263 268 268 267 263 262 269 276 282 288 289 289 291 294 297 296 293 292 292 293 294 293 293 291 285 282 284 290 298 303 304 304 303 301 298 300 307 309 304 304 311 317
262 267 268 268 262 260 267 275 283 289 289 287 292 297 298 297 297 296 294 293 292 292 292 288 284 286 290 296 306 314 314 311 305 300 298 301 305 307 305 304 308 314
256 258 260 261 258 258 265 276 285 288 285 287 293 298 298 298 298 297 297 296 294 292 291 289 288 289 292 300 314 323 322 317 308 301 299 302 303 303 305 306 308 313
254 253 252 252 253 258 265 274 283 283 281 287 293 295 296 297 299 299 300 298 295 295 294 292 290 291 294 303 314 322 324 320 311 303 300 301 303 302 303 307 310 312
250 249 246 247 250 256 263 269 275 277 278 283 290 293 294 296 298 299 299 298 297 298 298 295 294 293 295 301 310 318 323 320 314 306 301 303 305 299 297 306 312 312
243 244 244 246 250 254 260 263 268 272 276 280 286 290 291 294 297 298 297 298 299 298 299 298 296 296 296 300 307 316 322 322 318 310 306 308 309 299 296 308 314 312
235 237 242 246 249 253 256 258 262 266 271 275 281 286 288 293 296 296 294 295 296 298 301 300 296 296 298 302 306 315 321 322 320 316 312 312 311 309 310 315 315 313
227 231 240 245 247 250 252 253 258 263 267 270 276 284 288 292 295 294 292 293 296 299 301 301 300 300 300 301 306 315 320 320 320 320 318 313 312 316 320 319 317 318
226 228 236 242 245 249 251 252 256 258 261 265 271 278 284 289 294 293 291 293 298 299 298 296 297 299 299 301 307 314 318 318 317 319 321 319 317 322 326 323 321 321
229 229 234 242 245 248 250 250 251 253 257 261 266 273 280 286 289 289 291 295 296 297 299 298 299 300 298 300 308 314 316 317 316 316 319 322 323 326 329 329 327 326
230 231 234 239 244 247 248 248 247 250 254 259 263 270 278 283 284 285 290 294 296 298 301 302 301 300 295 297 308 315 315 315 316 314 316 319 324 328 330 331 332 332